sat.trackr.live / text

‹ back to catalog

STARLINK-5361

NORAD 57142 · 2023-090AT

PAYLOAD ACTIVE UNKNOWN

§ Identity

Operator
Country
US
Launch date
2023-06-23
Launch site
AFETR
Launch vehicle
Mass (kg)
RCS (m²)

Purposes: comms

External: N2YO · Heavens-Above · Gunter

§ Orbital elements

Epoch: 2026-05-25T04:11:58.818912Z

Period
94.27 min
Inclination
43.0026°
Eccentricity
0.0001441
Mean motion
15.27578086 rev/d
Perigee alt
482.1 km
Apogee alt
484.0 km
Semi-major
6,861.2 km
B*
9.9916e-7
RAAN
191.1488°
Arg perigee
310.3851°
Mean anomaly
49.6875°
Rev number
16,205

§ Raw data

STARLINK-53611 57142U 23090AT  26145.17498633 -.00000235  00000+0  99916-6 0  99922 57142  43.0026 191.1488 0001441 310.3851  49.6875 15.27578086162051

JSON: /api/v1/satellites/57142 · /tle

For live sub-satellite position, see the globe view (requires WebGL).

§ Visibility from observer

Set your observer location to see the next 7 days of passes ≥ 10°. The values pass through the URL so the page stays shareable.

No JS? Fill the form by hand. The geolocation button needs JavaScript.